Tracking 17141 objects as of 6-July-2015
HD Live streaming from Space Station

AMC-10 (GE-10)

Track AMC-10 (GE-10) now!
AMC-10 (GE-10) is classified as:


NORAD ID: 28154
Int'l Code: 2004-003A
Perigee: 35,782.4 km
Apogee: 35,805.6 km
Inclination: 0.0 °
Period: 1,436.1 minutes
Semi major axis: 42164 km
RCS: 21.2115 m2 (large)
Launch date: February 5, 2004
Source: SOCIETE EUROPEENNE DES SATELLITES (SES)

24 C-band transponders.
Your satellite tracking list
Your tracking list is empty





NASA's NSSDC Master Catalog

Two Line Element Set (TLE):
1 28154U 04003A   15186.55989706  .00000077  00000-0  00000+0 0  9990
2 28154 000.0254 321.0267 0002750 142.9401 245.8203 01.00270895 41820

Source of the keplerian elements: AFSPC

N2YO: 421